Time,TemperatureF,DewpointF,PressureIn,WindDirection,WindDirectionDegrees,WindSpeedMPH,WindSpeedGustMPH,Humidity,HourlyPrecipIn,Conditions,Clouds,dailyrainin,SoftwareType,DateUTC
2013-12-10 02:52:00,15.0,2.0,28.67,SW,215,3.0,5.0,55,0.00,,,0.00,,2013-12-10 08:52:00,
2013-12-10 03:02:00,15.0,2.0,28.67,SW,215,3.0,5.0,55,0.00,,,0.00,,2013-12-10 09:02:00,
2013-12-10 03:22:00,17.0,1.0,28.67,SW,234,5.0,7.0,48,0.00,,,0.00,,2013-12-10 09:22:00,
2013-12-10 03:54:00,17.0,1.0,28.67,WSW,241,3.0,9.0,48,0.00,,,0.00,,2013-12-10 09:54:00,
2013-12-10 04:22:00,17.0,1.0,28.67,SSW,201,5.0,8.0,48,0.00,,,0.00,,2013-12-10 10:22:00,
2013-12-10 04:53:00,17.0,1.0,28.67,SSW,198,5.0,10.0,49,0.00,,,0.00,,2013-12-10 10:53:00,
2013-12-10 05:22:00,17.0,1.0,28.67,SW,224,3.0,5.0,49,0.00,,,0.00,,2013-12-10 11:22:00,
2013-12-10 05:53:00,16.0,1.0,28.67,South,191,0.0,5.0,50,0.00,,,0.00,,2013-12-10 11:53:00,
2013-12-10 06:12:00,16.0,2.0,28.67,SW,233,2.0,5.0,53,0.00,,,0.00,,2013-12-10 12:12:00,
2013-12-10 06:22:00,16.0,2.0,28.67,SW,233,2.0,5.0,53,0.00,,,0.00,,2013-12-10 12:22:00,
2013-12-10 06:52:00,15.0,1.0,28.67,South,179,0.0,3.0,54,0.00,,,0.00,,2013-12-10 12:52:00,
2013-12-10 07:22:00,16.0,2.0,28.70,SSE,147,0.0,0.0,54,0.00,,,0.00,,2013-12-10 13:22:00,
2013-12-10 07:32:00,16.0,2.0,28.70,SSE,147,0.0,0.0,54,0.00,,,0.00,,2013-12-10 13:32:00,
2013-12-10 07:42:00,16.0,2.0,28.70,SSE,147,0.0,0.0,54,0.00,,,0.00,,2013-12-10 13:42:00,
2013-12-10 07:52:00,16.0,2.0,28.70,SSE,147,0.0,0.0,54,0.00,,,0.00,,2013-12-10 13:52:00,
2013-12-10 08:52:00,15.0,2.0,28.70,South,190,0.0,3.0,56,0.00,,,0.00,,2013-12-10 14:52:00,
2013-12-10 09:02:00,15.0,2.0,28.70,South,190,0.0,3.0,56,0.00,,,0.00,,2013-12-10 15:02:00,
2013-12-10 09:22:00,18.0,5.0,28.73,South,183,2.0,3.0,56,0.00,,,0.00,,2013-12-10 15:22:00,
2013-12-10 09:33:00,18.0,5.0,28.73,South,183,2.0,3.0,56,0.00,,,0.00,,2013-12-10 15:33:00,
2013-12-10 09:53:00,23.0,8.0,28.73,South,190,2.0,3.0,52,0.00,,,0.00,,2013-12-10 15:53:00,
2013-12-10 10:12:00,24.0,8.0,28.73,South,186,2.0,3.0,49,0.00,,,0.00,,2013-12-10 16:12:00,
2013-12-10 10:23:00,24.0,8.0,28.73,South,186,2.0,3.0,49,0.00,,,0.00,,2013-12-10 16:23:00,
2013-12-10 10:52:00,30.0,11.0,28.73,SSE,147,0.0,5.0,44,0.00,,,0.00,,2013-12-10 16:52:00,
2013-12-10 11:22:00,34.0,13.0,28.70,SE,139,3.0,3.0,41,0.00,,,0.00,,2013-12-10 17:22:00,
2013-12-10 11:52:00,36.0,14.0,28.70,SSE,159,0.0,4.0,40,0.00,,,0.00,,2013-12-10 17:52:00,
2013-12-10 12:22:00,38.0,15.0,28.67,South,183,2.0,2.0,39,0.00,,,0.00,,2013-12-10 18:22:00,
2013-12-10 12:32:00,38.0,15.0,28.67,South,183,2.0,2.0,39,0.00,,,0.00,,2013-12-10 18:32:00,
2013-12-10 12:52:00,40.0,16.0,28.67,SSE,149,2.0,5.0,38,0.00,,,0.00,,2013-12-10 18:52:00,
2013-12-10 13:22:00,41.0,16.0,28.64,SE,140,5.0,7.0,36,0.00,,,0.00,,2013-12-10 19:22:00,
2013-12-10 13:52:00,44.0,18.0,28.61,SE,146,4.0,5.0,35,0.00,,,0.00,,2013-12-10 19:52:00,
2013-12-10 14:02:00,44.0,18.0,28.61,SE,146,4.0,5.0,35,0.00,,,0.00,,2013-12-10 20:02:00,
2013-12-10 14:22:00,45.0,17.0,28.61,SE,138,3.0,9.0,32,0.00,,,0.00,,2013-12-10 20:22:00,
2013-12-10 14:32:00,45.0,17.0,28.61,SE,138,3.0,9.0,32,0.00,,,0.00,,2013-12-10 20:32:00,
2013-12-10 14:52:00,46.0,16.0,28.58,SE,128,5.0,9.0,30,0.00,,,0.00,,2013-12-10 20:52:00,
2013-12-10 15:02:00,46.0,16.0,28.58,SE,128,5.0,9.0,30,0.00,,,0.00,,2013-12-10 21:02:00,
2013-12-10 15:22:00,46.0,16.0,28.58,SSE,149,4.0,7.0,29,0.00,,,0.00,,2013-12-10 21:22:00,
2013-12-10 15:33:00,46.0,16.0,28.58,SSE,149,4.0,7.0,29,0.00,,,0.00,,2013-12-10 21:33:00,
2013-12-10 15:54:00,46.0,16.0,28.55,South,175,8.0,10.0,29,0.00,,,0.00,,2013-12-10 21:54:00,
2013-12-10 16:23:00,44.0,14.0,28.55,SE,143,3.0,10.0,29,0.00,,,0.00,,2013-12-10 22:23:00,
2013-12-10 16:42:00,42.0,12.0,28.52,South,171,7.0,10.0,29,0.00,,,0.00,,2013-12-10 22:42:00,
2013-12-10 16:52:00,42.0,12.0,28.52,South,171,7.0,10.0,29,0.00,,,0.00,,2013-12-10 22:52:00,
2013-12-10 17:02:00,42.0,12.0,28.52,South,171,7.0,10.0,29,0.00,,,0.00,,2013-12-10 23:02:00,
2013-12-10 17:12:00,42.0,12.0,28.52,South,171,7.0,10.0,29,0.00,,,0.00,,2013-12-10 23:12:00,
2013-12-10 17:53:00,37.0,9.0,28.52,SSE,155,4.0,7.0,31,0.00,,,0.00,,2013-12-10 23:53:00,
2013-12-10 18:22:00,35.0,8.0,28.52,SE,140,3.0,7.0,32,0.00,,,0.00,,2013-12-11 00:22:00,
2013-12-10 18:52:00,33.0,6.0,28.52,SE,138,0.0,4.0,32,0.00,,,0.00,,2013-12-11 00:52:00,